User: anonymous   Login
Location: Hiekkapohja
(62.3333°N, 25.7833°E)
Time: 20:36:00
(UTC+00:00)
Language:

Cosmos 1766 - Orbit

View from above orbital plane
View from above orbital plane
View from above satellite
View from above satellite

Ground track
Ground track

The orbit data is extracted from the following two-line orbital elements,

1 16881U 86055A   20304.39039434  .00000167  00000-0  80852-5 0  9994
2 16881  82.5055 258.2394 0016190 178.4067 181.7218 15.11128564867311
Epoch (UTC): 30 October 2020 09:22:10
Eccentricity: 0.0016190
inclination: 82.5055°
perigee height: 521 km
apogee height: 544 km
right ascension of ascending node: 258.2394°
argument of perigee: 178.4067°
revolutions per day: 15.11128564
mean anomaly at epoch: 181.7218°
orbit number at epoch: 86731

The dashed part of the orbit path shows where the satellite is in the earth's shadow,  

DLR